Voltar ao catálogo

STARLINK-4478

AtivoComunicaçõesVLEO
NORAD 53529·PAYLOAD·🇺🇸 United States

Lançado Aug 19, 2022 de Cape Canaveral Space Force Station

Loading…

Próximas Passagens (próximas 24 horas)

TLE

AtualizadoSource: CelesTrak SupGP

Época: Sep 14, 2026, 21:53 UTC

1 53529C 22101C   26257.91229167  .00029048  00000+0  14272-2 0  2576
2 53529  53.2113 297.2356 0001701 351.5402  23.1706 15.17527970    18

Acompanhe STARLINK-4478 em tempo real com AllMySat

Download on the App Store